Weather History for KHKY - January, 2013

Change the Weather History Date:

Saturday, January 5, 2013

  Actual Average Record
Temperature  
Mean Temperature 37 °F -  
Max Temperature 48 °F 46 °F 69 °F (1950)
Min Temperature 26 °F 28 °F 8 °F (1969)
Degree Days  
Heating Degree Days 28    
Moisture  
Dew Point 21 °F    
Average Humidity 54    
Maximum Humidity 75    
Minimum Humidity 30    
Precipitation  
Precipitation 0.00 in - - ()
Sea Level Pressure  
Sea Level Pressure 30.28 in    
Wind  
Wind Speed 2 mph (West)    
Max Wind Speed 6 mph    
Max Gust Speed -    
Visibility 10 miles    
Events Rain    
Averages and records for this station are not official NWS values.
T = Trace of Precipitation, MM = Missing Value Source: NWS Daily Summary

Daily Weather History Graph

Daily Weather History Graph

Search for Another Location

Airport or City:

Trip Planner

Search our weather history database for the weather conditions in past years. The results will help you decide how hot, cold, wet, or windy it might be!

Date:

Astronomy

Jan. 05, 2013 Rise Set
Actual Time 7:35 AM EST 5:26 PM EST
Civil Twilight 7:07 AM EST 5:54 PM EST
Nautical Twilight 6:35 AM EST 6:26 PM EST
Astronomical Twilight 6:04 AM EST 6:57 PM EST
Moon 12:47 AM EST (1/5) 12:09 PM EST (1/5)
Length of Visible Light 10h 46m
Length of Day
9h 50m
Last Quarter, 44% of the Moon is Illuminated
Jan 5
Last Quarter
Jan 11
New
Jan 18
First Quarter
Jan 26
Full
Feb 3
Last Quarter

Hourly Weather History & Observations

Time (EST) Temp. Windchill Dew Point Humidity Pressure Visibility Wind Dir Wind Speed Gust Speed Precip Events Conditions
12:53 AM 28.9 °F - 19.9 °F 69% 30.28 in 10.0 mi Calm Calm - N/A   Clear
1:53 AM 30.0 °F 26.5 °F 19.0 °F 64% 30.29 in 10.0 mi West 3.5 mph - N/A   Clear
2:53 AM 30.9 °F 27.5 °F 18.0 °F 59% 30.30 in 10.0 mi NNW 3.5 mph - N/A   Clear
3:53 AM 26.1 °F 21.9 °F 18.0 °F 71% 30.28 in 10.0 mi SW 3.5 mph - N/A   Clear
4:53 AM 28.9 °F - 19.0 °F 67% 30.29 in 10.0 mi Calm Calm - N/A   Clear
5:53 AM 27.0 °F 21.6 °F 19.9 °F 75% 30.30 in 10.0 mi NNW 4.6 mph - N/A   Clear
6:53 AM 26.1 °F 21.9 °F 19.0 °F 75% 30.31 in 10.0 mi North 3.5 mph - N/A   Clear
7:53 AM 27.0 °F 23.0 °F 19.0 °F 72% 30.32 in 10.0 mi NW 3.5 mph - N/A   Clear
8:53 AM 30.9 °F 27.5 °F 21.9 °F 69% 30.34 in 10.0 mi WNW 3.5 mph - N/A   Clear
9:53 AM 36.0 °F - 21.9 °F 57% 30.36 in 10.0 mi Calm Calm - N/A   Clear
10:53 AM 41.0 °F - 21.9 °F 47% 30.35 in 10.0 mi Calm Calm - N/A   Clear
11:53 AM 45.0 °F - 21.0 °F 39% 30.32 in 10.0 mi Calm Calm - N/A   Clear
12:53 PM 46.0 °F - 21.0 °F 37% 30.27 in 10.0 mi Calm Calm - N/A   Clear
1:53 PM 48.0 °F - 19.9 °F 33% 30.26 in 10.0 mi Variable 3.5 mph - N/A   Clear
2:53 PM 48.0 °F - 18.0 °F 30% 30.24 in 10.0 mi Variable 4.6 mph - N/A   Clear
3:53 PM 46.9 °F - 18.0 °F 32% 30.25 in 10.0 mi Variable 3.5 mph - N/A   Clear
4:53 PM 45.0 °F - 18.0 °F 34% 30.24 in 10.0 mi Calm Calm - N/A   Clear
6:53 PM 43.0 °F 39.5 °F 21.0 °F 42% 30.26 in 10.0 mi South 5.8 mph - N/A   Scattered Clouds
7:53 PM 42.1 °F 39.2 °F 23.0 °F 47% 30.27 in 10.0 mi SSW 4.6 mph - 0.00 in Rain Light Rain
8:53 PM 41.0 °F - 25.0 °F 53% 30.25 in 10.0 mi Calm Calm - 0.00 in   Overcast
9:53 PM 41.0 °F 39.0 °F 24.1 °F 51% 30.26 in 10.0 mi SW 3.5 mph - N/A   Overcast
10:53 PM 41.0 °F - 26.1 °F 55% 30.22 in 10.0 mi Calm Calm - 0.00 in   Overcast
11:53 PM 41.0 °F - 28.0 °F 60% 30.19 in 10.0 mi Calm Calm - 0.00 in   Mostly Cloudy